Regional Weather Roundup
Issued by NWS

Home | Current Version | Previous Version | Text Only | Print | Product List | Glossary On
Versions: 1 2 3 4 5 6 7 8 9 10 11 12 13 14 15 16 17 18 19 20 21 22 23 24 25 26 27 28 29 30 31 32 33 34 35 36 37 38 39 40 41 42 43 44 45 46 47 48 49 50
000
ASUS44 KBMX 031710
RWRAL

ALABAMA REGIONAL WEATHER ROUNDUP
NATIONAL WEATHER SERVICE BIRMINGHAM AL
1200 PM CDT THU SEP 03 2015

NOTE: "FAIR" INDICATES FEW OR NO CLOUDS BELOW 12,000 FEET
WITH NO SIGNIFICANT WEATHER AND/OR OBSTRUCTIONS TO VISIBILITY.

THE REMARK "TC" DENOTES TEMPERATURE IN DEGREES CELSIUS.

ALZ001>011-014-016>018-020-031800-
NORTH ALABAMA

CITY           SKY/WX    TMP DP  RH WIND       PRES   REMARKS
MUSCLE SHOALS  MOSUNNY   89  71  55 N3        30.03F HX  95
HUNTSVILLE     PTSUNNY   90  71  53 N7        30.02F HX  96
DECATUR        SUNNY     87  71  58 NE3       30.02F HX  93
HALEYVILLE     FAIR      86  71  60 CALM      30.06F HX  91
GADSDEN        MOSUNNY   88  70  55 CALM      30.00F HX  92
$$

ALZ012-013-022-023-030>036-040>044-031800-
WEST CENTRAL ALABAMA

CITY           SKY/WX    TMP DP  RH WIND       PRES   REMARKS
TUSCALOOSA     MOSUNNY   91  70  49 N3        30.00F HX  96
$$

ALZ015-024>027-033>036-040>044-031800-
CENTRAL ALABAMA

CITY           SKY/WX    TMP DP  RH WIND       PRES   REMARKS
BIRMINGHAM     PTSUNNY   87  69  54 NW5       30.03F HX  91
MONTGOMERY     PTSUNNY   90  69  50 E3        30.00F HX  94
SHELBY CO ARPT SUNNY     88  71  57 NW5       30.01F HX  94
MAXWELL AFB    PTSUNNY   87  71  59 VRB1      30.00S HX  92
GREENVILLE     FAIR      87  72  60 CALM      30.01S HX  93
$$

ALZ019-021-028-029-037-038-045>048-031800-
EAST CENTRAL ALABAMA

CITY           SKY/WX    TMP DP  RH WIND       PRES   REMARKS
ANNISTON       MOSUNNY   88  65  46 N6        30.01F HX  90
ALEXANDER CITY MOSUNNY   89  64  43 N3        30.02S HX  90
AUBURN         NOT AVBL
$$

ALZ051>064-031800-
SOUTHWEST ALABAMA

CITY           SKY/WX    TMP DP  RH WIND       PRES   REMARKS
MOBILE         PTSUNNY   88  70  55 CALM      30.02F HX  93
BROOKLEY FIELD PTSUNNY   87  75  67 SE8       30.02F HX  96
EVERGREEN      CLOUDY    89  72  56 VRB6      30.01F HX  96
$$

ALZ049-050-065>069-031800-
SOUTHEAST ALABAMA

CITY           SKY/WX    TMP DP  RH WIND       PRES   REMARKS
DOTHAN         CLOUDY    87  74  64 N5        30.04F HX  95
OZARK          CLOUDY    88  72  57 N6        30.00S HX  94
TROY           CLOUDY    88  72  58 N6        30.02S HX  94
EUFAULA        FAIR      86  75  69 CALM      29.99F HX  95
$$


USA.gov is the U.S. government's official web portal to all federal, state and local government web resources and services.